Location: Biharia
(46.4333°N, 22.8000°E)
Time: 17:44:10
(UTC+00:00)

FENGYUN 1C DEB - Pass Details

Date: 18 August 2022
Orbit: 796 x 915 km, 98.9° (Epoch: 24 September)

Event Time Altitude Azimuth Distance (km) Brightness Sun altitude
Rises 01:19:22 0° 359° (N) 3,428 ? -19.7°
Reaches altitude 10° 01:23:06 10° 334° (NNW) 2,459 ? -19.2°
Maximum altitude 01:25:28 13° 308° (NW) 2,229 ? -18.9°
Enters shadow 01:27:31 11° 284° (WNW) 2,376 ? -18.7°
